Simultaneous Nadir Overpasses (SNOs) Predictions

Prediction of SNOs between AQUA and NOAA-19 Satellite Orbit:

Table of predicted SNOs for the next 14.0 days since TLE Epoch: 10/19/2024
Index Date (AQUA) Time (AQUA) Lat,Lon (AQUA) SZA (AQUA ) Date (NOAA-19) Time (NOAA-19) Lat,Lon (NOAA-19) SZA (NOAA-19 ) Distance(km) Time Diff (sec)
1 10/19/2024 13:14:01 -75.60, 161.89 94.17 10/19/2024 13:13:02 -75.61, 161.88 94.16 1.59 59
2 10/19/2024 14:03:24 75.69, -30.71 85.93 10/19/2024 14:03:57 75.66, -30.70 85.91 3.22 33
3 10/21/2024 16:12:59 -75.26, 118.14 93.73 10/21/2024 16:11:51 -75.17, 115.84 93.87 65.79 68
4 10/21/2024 17:02:28 75.65, -75.33 86.65 10/21/2024 17:02:37 75.65, -75.34 86.66 0.19 9
5 10/23/2024 20:01:29 75.64,-119.99 87.38 10/23/2024 20:01:17 75.62,-120.05 87.37 1.96 12
6 10/23/2024 20:51:00 -76.18, 45.98 92.09 10/23/2024 20:52:05 -76.18, 49.16 92.02 84.47 65
7 10/25/2024 23:00:27 75.64,-164.70 88.12 10/25/2024 22:59:56 75.62,-164.68 88.10 2.41 31
8 10/25/2024 23:49:48 -75.70, 2.79 91.82 10/25/2024 23:50:54 -75.70, 2.85 91.81 1.63 66
9 10/28/2024 01:59:21 75.61, 150.69 88.81 10/28/2024 01:58:34 75.64, 150.77 88.84 3.21 47
10 10/28/2024 02:48:42 -75.67, -41.81 91.13 10/28/2024 02:49:32 -75.69, -41.78 91.10 2.79 50
11 10/30/2024 04:58:12 75.61, 106.04 89.51 10/30/2024 04:57:13 75.58, 105.99 89.48 2.99 59
12 10/30/2024 05:47:33 -75.66, -86.45 90.43 10/30/2024 05:48:10 -75.66, -86.49 90.43 0.99 37
13 11/01/2024 07:56:59 75.57, 61.49 90.16 11/01/2024 07:55:50 75.60, 61.44 90.19 3.45 69



Historial Predications of SNOs between AQUA and NOAA-19
